User: anonymous   Login
Location: Ebendorf
(52.1827°N, 11.5706°E)
Time: 16:50:37
(UTC+00:00)
Language:

Cosmos 1420 Rocket - Orbit

View from above orbital plane
View from above orbital plane
View from above satellite
View from above satellite

Ground track
Ground track

The orbit data is extracted from the following two-line orbital elements,

1 13649U 82109B   21211.20764726  .00000034  00000-0  20271-4 0  9997
2 13649  74.0004 119.8276 0019592 282.5451 230.4227 14.37221155 27681
Epoch (UTC): 30 July 2021 04:59:00
Eccentricity: 0.0019592
inclination: 74.0004°
perigee height: 753 km
apogee height: 781 km
right ascension of ascending node: 119.8276°
argument of perigee: 282.5451°
revolutions per day: 14.37221155
mean anomaly at epoch: 230.4227°
orbit number at epoch: 2768

The dashed part of the orbit path shows where the satellite is in the earth's shadow,  

DLR